| time (UTC) | temp F | wind direction | speed knots | gust knots | rain 1hr in | rain 24hr in | rain mn in | humidity % | barometer mb |
| 20260904051529 | 69 | 269 | 2.6 | 5.2 | 0.00 | 0.00 | 0.00 | 86 | 1012.2 |
| 20260904050030 | 69 | 269 | 0.0 | 0.0 | 0.00 | 0.00 | 0.00 | 86 | 1012.2 |
| 20260904044532 | 69 | 269 | 0.0 | 0.0 | 0.00 | 0.00 | 0.00 | 86 | 1012.0 |
| 20260904043029 | 69 | 269 | 0.0 | 0.0 | 0.00 | 0.00 | 0.00 | 85 | 1011.9 |
| 20260904041528 | 69 | 269 | 0.0 | 0.0 | 0.00 | 0.00 | 0.00 | 85 | 1011.8 |
| 20260904040028 | 70 | 269 | 0.0 | 3.5 | 0.00 | 0.00 | 0.00 | 85 | 1011.8 |
| 20260904034534 | 70 | 272 | 2.6 | 6.1 | 0.00 | 0.00 | 0.00 | 86 | 1011.6 |
| 20260904033027 | 70 | 285 | 0.0 | 6.1 | 0.00 | 0.00 | 0.00 | 85 | 1011.5 |
| 20260904031526 | 70 | 275 | 3.5 | 7.8 | 0.00 | 0.00 | 0.00 | 84 | 1011.3 |
| 20260904030026 | 70 | 275 | 5.2 | 9.6 | 0.00 | 0.00 | 0.00 | 84 | 1011.2 |
| 20260904024526 | 70 | 282 | 5.2 | 9.6 | 0.00 | 0.00 | 0.00 | 83 | 1011.2 |
| 20260904023025 | 70 | 255 | 5.2 | 10.4 | 0.00 | 0.00 | 0.00 | 83 | 1011.3 |
| 20260904021527 | 71 | 284 | 6.1 | 11.3 | 0.00 | 0.00 | 0.00 | 82 | 1011.3 |
| 20260904020020 | 71 | 274 | 5.2 | 10.4 | 0.00 | 0.00 | 0.00 | 81 | 1011.4 |
| 20260904014518 | 72 | 263 | 5.2 | 11.3 | 0.00 | 0.00 | 0.00 | 80 | 1011.4 |
| 20260904013016 | 72 | 236 | 6.1 | 11.3 | 0.00 | 0.00 | 0.00 | 79 | 1011.5 |
| 20260904011518 | 73 | 259 | 4.3 | 12.2 | 0.00 | 0.00 | 0.00 | 78 | 1011.6 |
| 20260904010016 | 74 | 259 | 6.1 | 10.4 | 0.00 | 0.00 | 0.00 | 76 | 1011.5 |
| 20260904004510 | 75 | 263 | 5.2 | 10.4 | 0.00 | 0.00 | 0.00 | 75 | 1011.5 |
| 20260904003012 | 76 | 259 | 6.1 | 12.2 | 0.00 | 0.00 | 0.00 | 75 | 1011.6 |
| 20260904001506 | 76 | 239 | 6.1 | 13.9 | 0.00 | 0.00 | 0.00 | 75 | 1011.5 |
| 20260904000006 | 76 | 284 | 7.0 | 12.2 | 0.00 | 0.00 | 0.00 | 75 | 1011.6 |
| 20260903234504 | 77 | 246 | 6.1 | 12.2 | 0.00 | 0.00 | 0.00 | 74 | 1011.7 |
| 20260903233002 | 77 | 272 | 5.2 | 10.4 | 0.00 | 0.00 | 0.00 | 74 | 1011.9 |
| 20260903231502 | 78 | 229 | 5.2 | 10.4 | 0.00 | 0.00 | 0.00 | 74 | 1011.9 |
| 20260903224615 | 79 | 265 | 7.0 | 12.2 | 0.00 | 0.00 | 0.00 | 72 | 1012.1 |
| 20260903223058 | 79 | 236 | 5.2 | 9.6 | 0.00 | 0.00 | 0.00 | 72 | 1012.2 |
| 20260903221556 | 79 | 248 | 4.3 | 11.3 | 0.00 | 0.00 | 0.00 | 72 | 1012.4 |
| 20260903220055 | 79 | 236 | 3.5 | 9.6 | 0.00 | 0.00 | 0.00 | 71 | 1012.4 |
| 20260903214607 | 79 | 200 | 3.5 | 11.3 | 0.00 | 0.00 | 0.00 | 72 | 1012.6 |
| 20260903213100 | 79 | 218 | 5.2 | 12.2 | 0.00 | 0.00 | 0.00 | 72 | 1012.7 |
| 20260903211547 | 78 | 238 | 4.3 | 11.3 | 0.00 | 0.00 | 0.00 | 74 | 1012.7 |
| 20260903210118 | 79 | 238 | 4.3 | 12.2 | 0.00 | 0.00 | 0.00 | 74 | 1012.6 |
| 20260903204549 | 78 | 259 | 6.1 | 11.3 | 0.00 | 0.00 | 0.00 | 73 | 1012.8 |
| 20260903203103 | 78 | 196 | 4.3 | 11.3 | 0.00 | 0.00 | 0.00 | 74 | 1013.0 |
| 20260903201544 | 79 | 194 | 3.5 | 8.7 | 0.00 | 0.00 | 0.00 | 73 | 1013.1 |
| 20260903200045 | 78 | 236 | 5.2 | 11.3 | 0.00 | 0.00 | 0.00 | 74 | 1013.3 |
| 20260903194537 | 78 | 196 | 6.1 | 8.7 | 0.00 | 0.00 | 0.00 | 73 | 1013.3 |
| 20260903193035 | 78 | 289 | 3.5 | 10.4 | 0.00 | 0.00 | 0.00 | 75 | 1013.5 |
| 20260903191536 | 78 | 203 | 3.5 | 8.7 | 0.00 | 0.00 | 0.00 | 74 | 1013.7 |
| 20260903190034 | 78 | 244 | 3.5 | 9.6 | 0.00 | 0.00 | 0.00 | 75 | 1013.9 |
| 20260903184532 | 78 | 202 | 2.6 | 8.7 | 0.00 | 0.00 | 0.00 | 74 | 1014.1 |
| 20260903183029 | 78 | 221 | 2.6 | 8.7 | 0.00 | 0.00 | 0.00 | 75 | 1014.3 |
| 20260903181528 | 77 | 182 | 4.3 | 8.7 | 0.00 | 0.00 | 0.00 | 76 | 1014.4 |
| 20260903180027 | 77 | 234 | 2.6 | 7.0 | 0.00 | 0.00 | 0.00 | 74 | 1014.3 |
| 20260903174530 | 76 | 213 | 1.7 | 6.1 | 0.00 | 0.00 | 0.00 | 75 | 1014.3 |
| 20260903173024 | 76 | 275 | 0.9 | 5.2 | 0.00 | 0.00 | 0.00 | 74 | 1014.3 |
| 20260903171520 | 76 | 206 | 1.7 | 4.3 | 0.00 | 0.00 | 0.00 | 74 | 1014.5 |
| 20260903170016 | 75 | 244 | 0.9 | 6.1 | 0.00 | 0.00 | 0.00 | 74 | 1014.4 |
| 20260903164512 | 74 | 217 | 0.0 | 4.3 | 0.00 | 0.00 | 0.00 | 76 | 1014.4 |
| 20260903163011 | 74 | 232 | 1.7 | 4.3 | 0.00 | 0.00 | 0.00 | 76 | 1014.3 |
| 20260903161511 | 74 | 329 | 0.0 | 2.6 | 0.00 | 0.00 | 0.00 | 77 | 1014.3 |
| 20260903160006 | 74 | 64 | 0.0 | 0.0 | 0.00 | 0.00 | 0.00 | 78 | 1014.3 |
| 20260903154502 | 73 | 64 | 0.0 | 0.0 | 0.00 | 0.00 | 0.00 | 81 | 1014.3 |
| 20260903153058 | 71 | 58 | 0.0 | 0.0 | 0.00 | 0.00 | 0.00 | 83 | 1014.2 |
| 20260903151554 | 69 | 48 | 0.0 | 0.0 | 0.00 | 0.00 | 0.00 | 85 | 1014.3 |
| 20260903150051 | 68 | 48 | 0.0 | 0.0 | 0.00 | 0.00 | 0.00 | 86 | 1014.3 |
| 20260903144547 | 66 | 48 | 0.0 | 0.0 | 0.00 | 0.00 | 0.00 | 88 | 1014.4 |
| 20260903143102 | 65 | 48 | 0.0 | 0.0 | 0.00 | 0.00 | 0.00 | 88 | 1014.1 |
| 20260903141558 | 64 | 48 | 0.0 | 0.0 | 0.00 | 0.00 | 0.00 | 90 | 1013.9 |
| 20260903140046 | 64 | 47 | 0.0 | 0.0 | 0.00 | 0.00 | 0.00 | 90 | 1013.7 |
| 20260903134548 | 63 | 47 | 0.0 | 0.0 | 0.00 | 0.00 | 0.00 | 91 | 1013.5 |
| 20260903133045 | 63 | 47 | 0.0 | 1.7 | 0.00 | 0.00 | 0.00 | 92 | 1013.5 |
| 20260903131545 | 63 | 278 | 0.0 | 0.0 | 0.00 | 0.00 | 0.00 | 92 | 1013.4 |
| 20260903130042 | 63 | 278 | 0.0 | 0.0 | 0.00 | 0.00 | 0.00 | 92 | 1013.5 |
| 20260903124544 | 62 | 278 | 0.0 | 0.0 | 0.00 | 0.00 | 0.00 | 92 | 1013.5 |
| 20260903123041 | 63 | 278 | 0.0 | 0.0 | 0.00 | 0.00 | 0.00 | 92 | 1013.5 |
| 20260903121540 | 63 | 278 | 0.0 | 0.0 | 0.00 | 0.00 | 0.00 | 92 | 1013.4 |
| 20260903120039 | 63 | 278 | 0.0 | 0.0 | 0.00 | 0.00 | 0.00 | 92 | 1013.5 |
| 20260903114544 | 63 | 278 | 0.0 | 0.0 | 0.00 | 0.00 | 0.00 | 91 | 1013.6 |
| 20260903113036 | 63 | 278 | 0.0 | 0.0 | 0.00 | 0.00 | 0.00 | 92 | 1013.8 |
| 20260903111540 | 63 | 278 | 0.0 | 0.0 | 0.00 | 0.00 | 0.00 | 92 | 1013.8 |
| 20260903110040 | 63 | 278 | 0.0 | 0.0 | 0.00 | 0.00 | 0.00 | 92 | 1013.8 |
| 20260903104538 | 63 | 278 | 0.0 | 0.0 | 0.00 | 0.00 | 0.00 | 91 | 1013.9 |
| 20260903103035 | 63 | 278 | 0.0 | 0.0 | 0.00 | 0.00 | 0.00 | 91 | 1014.0 |
| 20260903101537 | 64 | 278 | 0.0 | 0.0 | 0.00 | 0.00 | 0.00 | 91 | 1014.1 |
| 20260903100029 | 64 | 278 | 0.0 | 0.0 | 0.00 | 0.00 | 0.00 | 92 | 1014.0 |
| 20260903094528 | 64 | 278 | 0.0 | 1.7 | 0.00 | 0.00 | 0.00 | 92 | 1014.1 |
| 20260903093026 | 64 | 278 | 0.0 | 0.0 | 0.00 | 0.00 | 0.00 | 91 | 1014.2 |
| 20260903091524 | 64 | 278 | 0.0 | 0.0 | 0.00 | 0.00 | 0.00 | 91 | 1014.3 |
| 20260903090022 | 64 | 278 | 0.0 | 0.0 | 0.00 | 0.00 | 0.00 | 91 | 1014.5 |
| 20260903084520 | 64 | 278 | 0.0 | 0.0 | 0.00 | 0.00 | 0.00 | 90 | 1014.6 |
| 20260903083033 | 64 | 278 | 0.0 | 0.0 | 0.00 | 0.00 | 0.00 | 90 | 1014.6 |
| 20260903081529 | 64 | 278 | 0.0 | 0.0 | 0.00 | 0.00 | 0.00 | 89 | 1014.7 |
| 20260903080017 | 65 | 278 | 0.0 | 0.0 | 0.00 | 0.00 | 0.00 | 89 | 1014.7 |
| 20260903074516 | 65 | 278 | 0.0 | 0.0 | 0.00 | 0.00 | 0.00 | 88 | 1014.8 |
| 20260903073017 | 65 | 278 | 0.0 | 0.0 | 0.00 | 0.00 | 0.00 | 87 | 1014.7 |
| 20260903071510 | 66 | 278 | 0.0 | 0.0 | 0.00 | 0.00 | 0.00 | 87 | 1014.7 |
| 20260903070008 | 66 | 278 | 0.0 | 0.0 | 0.00 | 0.00 | 0.00 | 86 | 1014.6 |
| 20260903064509 | 67 | 278 | 0.0 | 0.0 | 0.00 | 0.00 | 0.00 | 86 | 1014.7 |
| 20260903063007 | 68 | 278 | 0.0 | 0.0 | 0.00 | 0.00 | 0.00 | 85 | 1014.6 |
| 20260903061509 | 68 | 278 | 0.0 | 2.6 | 0.00 | 0.00 | 0.00 | 84 | 1014.5 |
| 20260903060006 | 68 | 278 | 0.0 | 0.9 | 0.00 | 0.00 | 0.00 | 82 | 1014.6 |
| 20260903054506 | 69 | 278 | 0.9 | 3.5 | 0.00 | 0.00 | 0.00 | 83 | 1014.7 |
| 20260903053005 | 69 | 278 | 2.6 | 7.0 | 0.00 | 0.00 | 0.00 | 83 | 1014.7 |